Date String (YYYY-MM-DD hh:mm:ss) UTC,Instrument flags,Ambient pressure (hPa),Sample flow (lpm),Bypass flow (lpm),Sample temperature (°C),Ambient temperature (°C),ASC tube jacket temperature (°C),LED temperature (°C),Box temperature (°C),Sample RH (%),Span deviation,Mass concentration (μg/m³),Mass concentration (μg/m³),Mass concentration (μg/m³)
DateTimeUTC,F1_M11,P_M11,Q1_M11,Q2_M11,T1_M11,T2_M11,T3_M11,T4_M11,T5_M11,U1_M11,ZSPAN_M11,X0_M11,X2_M11,X1_M11
2021-12-28 11:00:00,,0805.9,5.01,0.00,22.5,22.3,00.0,31.5,24.2,11.1,0000.0,0007.42,0001.40,0000.46
2021-12-28 11:01:00,,0806.0,5.01,0.00,22.5,22.1,00.0,31.5,24.1,11.1,0000.0,0007.77,0001.31,0000.46
2021-12-28 11:02:00,,0806.0,4.99,0.00,22.4,22.0,00.0,31.5,24.0,11.1,0000.0,0007.76,0001.25,0000.44
2021-12-28 11:03:00,,0806.1,5.00,0.00,22.4,21.9,00.0,31.5,24.0,11.1,0000.0,0008.41,0001.27,0000.42
2021-12-28 11:04:00,,0806.2,5.01,0.00,22.4,21.9,00.0,31.4,24.0,11.2,0000.0,0008.80,0001.25,0000.40
2021-12-28 11:05:00,,0806.2,4.99,0.00,22.4,21.8,00.0,31.4,24.0,11.2,0000.0,0009.10,0001.23,0000.38
2021-12-28 11:06:00,,0806.3,5.02,0.00,22.4,21.8,00.0,31.4,24.0,11.2,0000.0,0010.16,0001.21,0000.37
2021-12-28 11:07:00,,0806.4,5.00,0.00,22.4,21.7,00.0,31.4,24.0,11.2,0000.0,0010.50,0001.18,0000.36
2021-12-28 11:08:00,,0806.4,5.00,0.00,22.4,21.7,00.0,31.4,24.0,11.2,0000.0,0010.65,0001.19,0000.36
2021-12-28 11:09:00,,0806.4,5.00,0.00,22.4,21.7,00.0,31.4,24.0,11.2,0000.0,0010.64,0001.17,0000.36
2021-12-28 11:10:00,,0806.5,5.00,0.00,22.4,21.7,00.0,31.4,24.0,11.2,0000.0,0009.91,0001.14,0000.36
2021-12-28 11:11:00,,0806.4,5.00,0.00,22.4,21.7,00.0,31.4,24.0,11.2,0000.0,0008.74,0001.15,0000.37
2021-12-28 11:12:00,,0806.5,5.00,0.00,22.4,21.7,00.0,31.4,24.0,11.2,0000.0,0008.25,0001.17,0000.37
2021-12-28 11:13:00,,0806.5,5.00,0.00,22.3,21.7,00.0,31.4,24.0,11.2,0000.0,0008.39,0001.18,0000.38
2021-12-28 11:14:00,,0806.5,4.99,0.00,22.3,21.7,00.0,31.4,24.0,11.3,0000.0,0008.43,0001.12,0000.38
2021-12-28 11:15:00,,0806.4,5.00,0.00,22.3,21.6,00.0,31.4,24.0,11.3,0000.0,0008.01,0001.11,0000.40
2021-12-28 11:16:00,,0806.4,5.01,0.00,22.3,21.6,00.0,31.4,24.0,11.2,0000.0,0007.49,0001.07,0000.41
2021-12-28 11:17:00,,0806.5,5.00,0.00,22.3,21.6,00.0,31.4,24.0,11.1,0000.0,0005.96,0001.03,0000.40
2021-12-28 11:18:00,,0806.6,5.01,0.00,22.3,21.6,00.0,31.3,23.9,11.2,0000.0,0005.08,0001.00,0000.40
2021-12-28 11:19:00,,0806.7,4.99,0.00,22.2,21.5,00.0,31.3,23.9,11.3,0000.0,0004.79,0001.00,0000.41
2021-12-28 11:20:00,,0806.7,5.02,0.00,22.2,21.5,00.0,31.3,23.8,11.4,0000.0,0005.62,0001.05,0000.42
2021-12-28 11:21:00,,0806.7,4.99,0.00,22.2,21.4,00.0,31.3,23.7,11.4,0000.0,0005.61,0001.05,0000.42
2021-12-28 11:22:00,,0806.7,4.99,0.00,22.1,21.5,00.0,31.3,23.7,11.4,0000.0,0005.78,0001.04,0000.42
2021-12-28 11:23:00,,0806.7,4.99,0.00,22.2,22.0,00.0,31.3,23.9,11.4,0000.0,0005.76,0001.06,0000.43
2021-12-28 11:24:00,,0806.7,5.01,0.00,22.3,22.7,00.0,31.4,24.2,11.3,0000.0,0005.64,0001.07,0000.42
2021-12-28 11:25:00,,0806.6,4.99,0.00,22.5,23.2,00.0,31.4,24.4,11.2,0000.0,0005.91,0001.11,0000.42
2021-12-28 11:26:00,,0806.7,4.99,0.00,22.5,23.0,00.0,31.4,24.4,11.1,0000.0,0007.46,0001.13,0000.41
2021-12-28 11:27:00,,0806.8,5.00,0.00,22.5,22.7,00.0,31.4,24.2,11.2,0000.0,0007.75,0001.14,0000.40
2021-12-28 11:28:00,,0806.8,5.00,0.00,22.4,22.3,00.0,31.4,24.0,11.2,0000.0,0008.55,0001.17,0000.41
2021-12-28 11:29:00,,0806.7,4.99,0.00,22.3,22.1,00.0,31.4,23.9,11.3,0000.0,0008.81,0001.21,0000.42
2021-12-28 11:30:00,,0806.8,5.01,0.00,22.2,21.8,00.0,31.4,23.8,11.3,0000.0,0008.96,0001.22,0000.43
2021-12-28 11:31:00,,0806.8,4.99,0.00,22.1,21.6,00.0,31.3,23.6,11.4,0000.0,0008.85,0001.21,0000.44
2021-12-28 11:32:00,,0806.7,4.99,0.00,22.1,21.4,00.0,31.3,23.5,11.5,0000.0,0009.75,0001.28,0000.44
2021-12-28 11:33:00,,0806.7,5.01,0.00,22.0,21.3,00.0,31.3,23.5,11.5,0000.0,0010.27,0001.29,0000.43
2021-12-28 11:34:00,,0806.7,5.01,0.00,22.0,21.2,00.0,31.2,23.5,11.5,0000.0,0010.51,0001.32,0000.43
2021-12-28 11:35:00,,0806.7,4.99,0.00,21.9,21.2,00.0,31.2,23.4,11.5,0000.0,0010.54,0001.39,0000.43
2021-12-28 11:36:00,,0806.7,4.99,0.00,21.9,21.1,00.0,31.2,23.4,11.5,0000.0,0010.44,0001.38,0000.43
2021-12-28 11:37:00,,0806.7,5.00,0.00,21.8,21.0,00.0,31.1,23.3,11.6,0000.0,0009.58,0001.38,0000.42
2021-12-28 11:38:00,,0806.8,5.01,0.00,21.8,21.0,00.0,31.1,23.3,11.6,0000.0,0009.33,0001.38,0000.43
2021-12-28 11:39:00,,0806.8,4.99,0.00,21.7,20.9,00.0,31.1,23.2,11.7,0000.0,0008.43,0001.35,0000.42
2021-12-28 11:40:00,,0806.8,5.00,0.00,21.7,20.8,00.0,31.0,23.2,11.7,0000.0,0008.30,0001.34,0000.42
2021-12-28 11:41:00,,0806.8,5.00,0.00,21.7,21.2,00.0,31.0,23.3,11.7,0000.0,0008.45,0001.38,0000.41
2021-12-28 11:42:00,,0806.9,5.00,0.00,21.8,22.1,00.0,31.0,23.6,11.6,0000.0,0008.52,0001.35,0000.40
2021-12-28 11:43:00,,0806.8,5.00,0.00,22.0,22.8,00.0,31.1,24.0,11.5,0000.0,0007.97,0001.32,0000.40
2021-12-28 11:44:00,,0806.8,4.99,0.00,22.1,23.0,00.0,31.1,24.1,11.4,0000.0,0008.46,0001.40,0000.41
2021-12-28 11:45:00,,0806.8,5.00,0.00,22.1,22.6,00.0,31.1,23.9,11.4,0000.0,0008.88,0001.46,0000.42
2021-12-28 11:46:00,,0806.8,5.00,0.00,22.0,22.2,00.0,31.1,23.7,11.5,0000.0,0010.27,0001.48,0000.45
2021-12-28 11:47:00,,0806.8,5.02,0.00,22.0,21.9,00.0,31.1,23.5,11.5,0000.0,0009.79,0001.52,0000.46
2021-12-28 11:48:00,,0806.8,4.98,0.00,21.9,21.7,00.0,31.1,23.4,11.6,0000.0,0009.88,0001.58,0000.48
2021-12-28 11:49:00,,0806.9,4.99,0.00,21.8,21.4,00.0,31.0,23.2,11.6,0000.0,0010.47,0001.68,0000.50
2021-12-28 11:50:00,,0806.8,5.01,0.00,21.7,21.2,00.0,31.0,23.1,11.7,0000.0,0010.55,0001.74,0000.53
2021-12-28 11:51:00,,0806.8,5.00,0.00,21.6,21.0,00.0,31.0,23.1,11.8,0000.0,0010.88,0001.81,0000.56
2021-12-28 11:52:00,,0806.9,4.98,0.00,21.6,20.8,00.0,30.9,23.0,11.8,0000.0,0011.89,0001.87,0000.59
2021-12-28 11:53:00,,0806.8,5.02,0.00,21.5,20.8,00.0,30.9,22.9,11.9,0000.0,0011.81,0001.98,0000.62
2021-12-28 11:54:00,,0806.9,4.99,0.00,21.4,20.6,00.0,30.8,22.9,11.9,0000.0,0011.64,0002.05,0000.63
2021-12-28 11:55:00,,0807.0,5.01,0.00,21.4,20.5,00.0,30.8,22.8,11.9,0000.0,0011.26,0002.04,0000.65
2021-12-28 11:56:00,,0807.1,4.99,0.00,21.4,21.0,00.0,30.8,23.0,11.9,0000.0,0010.86,0001.94,0000.66
2021-12-28 11:57:00,,0807.0,5.02,0.00,21.6,21.9,00.0,30.8,23.3,11.8,0000.0,0009.39,0001.92,0000.66
2021-12-28 11:58:00,,0807.0,4.98,0.00,21.7,22.6,00.0,30.8,23.7,11.7,0000.0,0009.95,0001.94,0000.67
2021-12-28 11:59:00,,0807.0,5.01,0.00,21.8,22.3,00.0,30.9,23.7,11.7,0000.0,0010.59,0001.95,0000.68
